TimeEST,TemperatureF,Dew PointF,Humidity,Sea Level PressureIn,VisibilityMPH,Wind Direction,Wind SpeedMPH,Gust SpeedMPH,PrecipitationIn,Events,Conditions,WindDirDegrees,DateUTC
12:53 AM,64.0,61.0,90,30.12,10.0,Calm,Calm,-,N/A,,Scattered Clouds,0,2012-11-28 05:53:00
1:53 AM,64.0,61.0,90,30.12,8.0,West,3.5,-,N/A,,Mostly Cloudy,260,2012-11-28 06:53:00
2:53 AM,62.1,60.1,93,30.12,7.0,WNW,5.8,-,N/A,,Clear,290,2012-11-28 07:53:00
3:53 AM,60.1,57.9,93,30.11,7.0,West,4.6,-,N/A,,Clear,280,2012-11-28 08:53:00
4:53 AM,61.0,59.0,93,30.12,7.0,WNW,4.6,-,N/A,,Clear,290,2012-11-28 09:53:00
5:53 AM,63.0,60.1,90,30.13,9.0,NNW,8.1,-,N/A,,Clear,330,2012-11-28 10:53:00
6:53 AM,63.0,60.1,90,30.14,9.0,NNW,3.5,-,N/A,,Clear,340,2012-11-28 11:53:00
7:53 AM,62.1,59.0,90,30.16,7.0,Calm,Calm,-,N/A,,Overcast,0,2012-11-28 12:53:00
8:53 AM,68.0,64.0,87,30.18,7.0,North,5.8,-,N/A,,Clear,350,2012-11-28 13:53:00
9:53 AM,73.0,64.9,76,30.20,10.0,North,5.8,-,N/A,,Clear,360,2012-11-28 14:53:00
10:53 AM,75.0,63.0,66,30.21,10.0,North,8.1,18.4,N/A,,Clear,360,2012-11-28 15:53:00
11:53 AM,75.9,63.0,64,30.19,10.0,North,6.9,-,N/A,,Clear,360,2012-11-28 16:53:00
12:53 PM,75.0,63.0,66,30.17,10.0,North,10.4,17.3,N/A,,Mostly Cloudy,360,2012-11-28 17:53:00
1:53 PM,75.0,62.1,64,30.17,10.0,North,13.8,19.6,N/A,,Clear,350,2012-11-28 18:53:00
2:53 PM,73.0,62.1,68,30.16,10.0,North,11.5,23.0,N/A,,Partly Cloudy,350,2012-11-28 19:53:00
3:53 PM,72.0,62.1,71,30.17,10.0,North,8.1,18.4,N/A,,Clear,360,2012-11-28 20:53:00
4:53 PM,69.1,61.0,75,30.18,10.0,North,10.4,16.1,N/A,,Partly Cloudy,350,2012-11-28 21:53:00
5:53 PM,66.0,61.0,84,30.18,10.0,North,9.2,-,N/A,,Clear,350,2012-11-28 22:53:00
6:53 PM,64.9,60.1,84,30.20,9.0,NNW,10.4,17.3,N/A,,Clear,340,2012-11-28 23:53:00
7:53 PM,64.0,60.1,87,30.20,9.0,NNW,8.1,-,N/A,,Clear,330,2012-11-29 00:53:00
8:53 PM,63.0,59.0,87,30.22,8.0,NNW,6.9,-,N/A,,Clear,340,2012-11-29 01:53:00
9:53 PM,62.1,59.0,90,30.22,7.0,NNW,6.9,-,N/A,,Clear,340,2012-11-29 02:53:00
10:53 PM,61.0,57.9,90,30.22,6.0,NNW,6.9,-,N/A,,Clear,340,2012-11-29 03:53:00
11:53 PM,60.1,57.9,93,30.20,6.0,NNW,5.8,-,N/A,,Clear,330,2012-11-29 04:53:00